world map with LCEN marked

LCEN - Airport

This information may not be accurate or current and is not valid for navigation or flight planning. No warranty of fitness for any purpose is made or implied.

flag of Cyprus

Donate via PayPal

Additional information is available on the NEW Great Circle Mapper

Location
City:  Lefkosa, Cyprus
Near (Alt.):Nicosia
Name:Ercan International Airport
ICAO / IATA:LCEN / ECN

Details
Type:Airport (Aerodrome, Airfield)
Latitude:35°08'56"N (35.148889)
Longitude:33°29'59"E (33.499722)
Elevation:402 ft (123 m)
Runways:1
Longest:9039 × 148 ft (2755 × 45 m)

Time
Timezone:UTC+2 (DST+5)
Local Time:

Weather
METAR:LCEN  220320Z 22004KT 9999 FEW025 07/05 Q1017 NOSIG RMK RWY11 23003KT
TAF:LCEN  211040Z 2112/2212 10012KT 9999 FEW025 SCT100= TAF COR LTAC 211040Z 2112/2212 VRB02KT 4000 -RASN BR BKN025 BKN100 TEMPO 2112/2116 2000 TEMPO 2119/2123 2000 -SN BECMG 2200/2203 8000 BKN035 BKN100 TEMPO 2203/2207 2000 BR

Related Locations
Nearby:
Farthest:RVV: 11651 mi / 18750 km
Raivavae, Tubuai Islands, Austral Islands, PF

Find:

   beyond  
but within

Other Information
Maps:
Links:
Sources:

  


 


Great Circle Mapper   Great Circle Mapper
Great Circle Mapper FAQ   Great Circle Mapper FAQ
  Karl's Home Page
KLSē   KLSē Home
   GC on Facebook
Airlines of the World   Airlines of the World
Donate via PayPal


Copyright © 2004-2019, Karl L. Swartz. All rights reserved.
All trademarks mentioned herein belong to their respective owners.

Please see credits for attribution and copyright information.

Karl Swartz <karl@kls2.com>
  Powered by FreeBSD
Valid HTML 4.01!
Labeled with ICRA
hCard Microformat
Geo Microformat